When you browse on this site, cookies collect data to enhance your experience and personalize the content and advertising you see.
Visit our Privacy Policy to learn more. By continuing to use the site, you agree to this use of cookies and data.
  • In Czech Republic
  • List of Countries
  • For 7 days
  • Water Temperature
  • Satellite Maps
  • Weather Map
  • Weather Widgets
  • user-avatar
    Login

    Hourly Weather Podyazno

    Today, 19 February, Tuesday

    Time Temperature Precipitation Wind Pressure Humidity
    00:00 -4°C° 0 mm 3 mps 753 mmHg 75%
    01:00 -4°C° 0 mm 3 mps 753 mmHg 73%
    02:00 -5°C° 0 mm 3 mps 752 mmHg 76%
    03:00 -5°C° 0 mm 3 mps 752 mmHg 76%
    04:00 -5°C° 0 mm 4 mps 751 mmHg 77%
    05:00 -5°C° 0 mm 4 mps 751 mmHg 78%
    06:00 -5°C° 0 mm 4 mps 750 mmHg 79%
    07:00 -5°C° 0 mm 4 mps 750 mmHg 80%
    08:00 -4°C° 0 mm 4 mps 749 mmHg 81%
    09:00 -4°C° 0 mm 5 mps 749 mmHg 81%
    10:00 -1°C° 0 mm 5 mps 748 mmHg 81%
    11:00 0°C° 0 mm 5 mps 748 mmHg 81%
    12:00 +1°C° 0 mm 5 mps 747 mmHg 82%
    13:00 +1°C° 0 mm 5 mps 746 mmHg 83%
    14:00 +2°C° 0 mm 5 mps 745 mmHg 84%
    15:00 +1°C° 0 mm 5 mps 745 mmHg 86%
    16:00 +1°C° 0 mm 5 mps 744 mmHg 87%
    17:00 0°C° 0 mm 5 mps 743 mmHg 89%
    18:00 0°C° 0 mm 5 mps 743 mmHg 89%
    19:00 0°C° 0 mm 5 mps 742 mmHg 89%
    20:00 0°C° 0 mm 5 mps 741 mmHg 89%
    21:00 0°C° 0 mm 5 mps 741 mmHg 89%
    22:00 0°C° 0 mm 5 mps 740 mmHg 88%
    23:00 0°C° 0 mm 4 mps 740 mmHg 87%

    Tomorrow, 20 February, Wednesday

    Time Temperature Precipitation Wind Pressure Humidity
    00:00 0°C° 0.1 mm 5 mps 740 mmHg 89%
    01:00 0°C° 0.1 mm 5 mps 740 mmHg 91%
    02:00 0°C° 0.1 mm 5 mps 740 mmHg 92%
    03:00 0°C° 0 mm 5 mps 739 mmHg 92%
    04:00 0°C° 0 mm 4 mps 739 mmHg 91%
    05:00 0°C° 0 mm 4 mps 739 mmHg 91%
    06:00 0°C° 0.1 mm 5 mps 739 mmHg 91%
    07:00 0°C° 0.1 mm 5 mps 739 mmHg 92%
    08:00 0°C° 0.1 mm 5 mps 739 mmHg 92%
    09:00 +1°C° 0 mm 5 mps 739 mmHg 90%
    10:00 +1°C° 0 mm 6 mps 739 mmHg 88%
    11:00 +1°C° 0 mm 6 mps 739 mmHg 86%
    12:00 +1°C° 0 mm 6 mps 739 mmHg 84%
    13:00 +1°C° 0 mm 6 mps 739 mmHg 82%
    14:00 +1°C° 0 mm 6 mps 739 mmHg 81%
    15:00 +1°C° 0.1 mm 6 mps 739 mmHg 82%
    16:00 +1°C° 0.1 mm 6 mps 738 mmHg 83%
    17:00 +1°C° 0.1 mm 6 mps 738 mmHg 85%
    18:00 -1°C° 0.1 mm 7 mps 739 mmHg 80%
    19:00 -2°C° 0.1 mm 7 mps 739 mmHg 76%
    20:00 -3°C° 0.1 mm 7 mps 739 mmHg 71%
    21:00 -5°C° 0 mm 8 mps 740 mmHg 72%
    22:00 -5°C° 0 mm 8 mps 740 mmHg 72%
    23:00 -6°C° 0 mm 8 mps 741 mmHg 73%

    Day after tomorrow, 21 February, Thursday

    Time Temperature Precipitation Wind Pressure Humidity
    00:00 -6°C° 0 mm 8 mps 741 mmHg 72%
    01:00 -6°C° 0 mm 7 mps 742 mmHg 71%
    02:00 -7°C° 0 mm 7 mps 742 mmHg 69%
    03:00 -7°C° 0 mm 7 mps 743 mmHg 69%
    04:00 -7°C° 0 mm 7 mps 743 mmHg 69%
    05:00 -7°C° 0 mm 7 mps 743 mmHg 69%
    06:00 -7°C° 0 mm 7 mps 744 mmHg 68%
    07:00 -8°C° 0 mm 7 mps 745 mmHg 67%
    08:00 -8°C° 0 mm 7 mps 745 mmHg 65%
    09:00 -8°C° 0 mm 7 mps 746 mmHg 63%
    10:00 -8°C° 0 mm 7 mps 746 mmHg 62%
    11:00 -8°C° 0 mm 7 mps 746 mmHg 60%
    12:00 -8°C° 0 mm 6 mps 747 mmHg 59%
    13:00 -6°C° 0 mm 6 mps 747 mmHg 59%
    14:00 -6°C° 0 mm 6 mps 748 mmHg 58%
    15:00 -6°C° 0 mm 6 mps 748 mmHg 60%
    16:00 -6°C° 0 mm 5 mps 749 mmHg 61%
    17:00 -7°C° 0 mm 5 mps 749 mmHg 63%
    18:00 -7°C° 0 mm 5 mps 750 mmHg 64%
    19:00 -8°C° 0 mm 5 mps 750 mmHg 65%
    20:00 -8°C° 0 mm 4 mps 751 mmHg 66%
    21:00 -8°C° 0 mm 4 mps 751 mmHg 66%
    22:00 -8°C° 0 mm 4 mps 752 mmHg 66%
    23:00 -8°C° 0 mm 4 mps 752 mmHg 66%

    22 February, Friday

    Time Temperature Precipitation Wind Pressure Humidity
    00:00 -9°C° 0 mm 4 mps 753 mmHg 66%
    01:00 -9°C° 0 mm 4 mps 754 mmHg 66%
    02:00 -10°C° 0 mm 4 mps 754 mmHg 66%
    03:00 -11°C° 0 mm 5 mps 755 mmHg 66%
    04:00 -12°C° 0 mm 5 mps 756 mmHg 65%
    05:00 -12°C° 0 mm 5 mps 756 mmHg 65%
    06:00 -12°C° 0 mm 5 mps 757 mmHg 65%
    07:00 -12°C° 0 mm 5 mps 758 mmHg 65%
    08:00 -12°C° 0 mm 5 mps 759 mmHg 65%
    09:00 -11°C° 0 mm 5 mps 759 mmHg 63%
    10:00 -10°C° 0 mm 4 mps 760 mmHg 62%
    11:00 -9°C° 0 mm 4 mps 760 mmHg 60%
    12:00 -8°C° 0 mm 5 mps 760 mmHg 56%
    13:00 -7°C° 0 mm 5 mps 760 mmHg 52%
    14:00 -8°C° 0 mm 6 mps 760 mmHg 48%
    15:00 -8°C° 0 mm 6 mps 760 mmHg 50%
    16:00 -8°C° 0 mm 6 mps 760 mmHg 51%
    17:00 -9°C° 0 mm 6 mps 759 mmHg 53%
    18:00 -9°C° 0 mm 6 mps 760 mmHg 56%
    19:00 -9°C° 0 mm 6 mps 760 mmHg 60%
    20:00 -10°C° 0 mm 6 mps 760 mmHg 63%
    21:00 -10°C° 0 mm 6 mps 761 mmHg 65%
    22:00 -10°C° 0 mm 5 mps 761 mmHg 66%
    23:00 -11°C° 0 mm 5 mps 761 mmHg 68%

    23 February, Saturday

    Time Temperature Precipitation Wind Pressure Humidity
    00:00 -11°C° 0 mm 5 mps 762 mmHg 69%
    01:00 -11°C° 0 mm 4 mps 762 mmHg 70%
    02:00 -11°C° 0 mm 4 mps 762 mmHg 71%
    03:00 -11°C° 0 mm 4 mps 762 mmHg 72%
    04:00 -12°C° 0 mm 3 mps 763 mmHg 73%
    05:00 -12°C° 0 mm 3 mps 763 mmHg 74%
    06:00 -12°C° 0 mm 3 mps 763 mmHg 74%
    07:00 -12°C° 0 mm 3 mps 763 mmHg 74%
    08:00 -12°C° 0 mm 3 mps 763 mmHg 73%
    09:00 -12°C° 0 mm 3 mps 763 mmHg 69%
    10:00 -9°C° 0 mm 2 mps 763 mmHg 65%
    11:00 -8°C° 0 mm 2 mps 764 mmHg 61%
    12:00 -8°C° 0 mm 2 mps 763 mmHg 56%
    13:00 -7°C° 0 mm 2 mps 763 mmHg 52%
    14:00 -6°C° 0 mm 2 mps 763 mmHg 47%
    15:00 -6°C° 0 mm 2 mps 763 mmHg 48%
    16:00 -6°C° 0 mm 2 mps 763 mmHg 49%
    17:00 -6°C° 0 mm 2 mps 763 mmHg 49%
    18:00 -6°C° 0 mm 2 mps 763 mmHg 52%
    19:00 -4°C° 0 mm 1 mps 763 mmHg 55%
    20:00 -4°C° 0 mm 1 mps 763 mmHg 57%
    21:00 -6°C° 0 mm 1 mps 763 mmHg 59%
    22:00 -6°C° 0 mm 1 mps 763 mmHg 61%
    23:00 -6°C° 0 mm 0 mps 763 mmHg 63%

    24 February, Sunday

    Time Temperature Precipitation Wind Pressure Humidity
    00:00 -6°C° 0 mm 0 mps 764 mmHg 64%
    01:00 -6°C° 0 mm 0 mps 764 mmHg 65%
    02:00 -6°C° 0 mm 0 mps 764 mmHg 67%
    03:00 -6°C° 0 mm 1 mps 764 mmHg 69%
    04:00 -6°C° 0 mm 1 mps 764 mmHg 71%
    05:00 -7°C° 0 mm 1 mps 764 mmHg 73%
    06:00 -6°C° 0 mm 1 mps 764 mmHg 76%
    07:00 -6°C° 0 mm 1 mps 764 mmHg 79%
    08:00 -6°C° 0 mm 1 mps 764 mmHg 81%
    09:00 -4°C° 0 mm 1 mps 764 mmHg 80%
    10:00 -3°C° 0 mm 1 mps 765 mmHg 79%
    11:00 -4°C° 0 mm 2 mps 765 mmHg 78%
    12:00 -3°C° 0 mm 2 mps 764 mmHg 76%
    13:00 -2°C° 0 mm 2 mps 764 mmHg 75%
    14:00 -1°C° 0 mm 2 mps 764 mmHg 73%
    15:00 -2°C° 0 mm 2 mps 764 mmHg 76%
    16:00 -2°C° 0 mm 2 mps 763 mmHg 79%
    17:00 -2°C° 0 mm 2 mps 763 mmHg 83%
    18:00 -2°C° 0 mm 2 mps 763 mmHg 83%
    19:00 -2°C° 0 mm 2 mps 762 mmHg 83%
    20:00 -2°C° 0 mm 3 mps 762 mmHg 84%
    21:00 -2°C° 0 mm 3 mps 762 mmHg 84%
    22:00 -2°C° 0 mm 3 mps 761 mmHg 85%
    23:00 -2°C° 0 mm 3 mps 761 mmHg 86%
    Show more